Location: Unspecified
(0.0000°N, 0.0000°E)
Time: 13:11:33
(UTC+00:00)

Envisat - Pass Details

Date: 26 November 2021
Orbit: 764 x 766 km, 98.2° (Epoch: 07 December)

Event Time Altitude Azimuth Distance (km) Brightness Sun altitude
Rises 04:02:38 0° 29° (NNE) 3,213 6.3 -24.3°
Reaches altitude 10° 04:05:07 10° 38° (NE) 2,290 5.6 -23.7°
Maximum altitude 04:09:40 34° 102° (ESE) 1,241 4.7 -22.7°
Drops below altitude 10° 04:14:12 10° 166° (SSE) 2,300 5.9 -21.6°
Sets 04:16:42 0° 175° (S) 3,228 6.6 -21.1°
